Location: Pic du Midi - T1M
(42.9366°N, 0.1426°E)
Time: 05:51:21
(UTC+01:00)

Envisat - Visible Passes

Search period start: 06 October 2022 00:00
Search period end: 16 October 2022 00:00
Orbit: 764 x 765 km, 98.2° (Epoch: 05 October)

Date Brightness Start Highest point End Pass type
(mag) Time Alt. Az. Time Alt. Az. Time Alt. Az.
06 Oct 4.2 04:49:13 10° NNE 04:53:59 40° E 04:58:44 10° SSE visible
06 Oct 4.0 06:28:38 10° N 06:32:46 26° WNW 06:36:53 10° WSW visible
07 Oct 5.5 04:13:14 10° NE 04:16:45 19° E 04:20:14 10° SE visible
07 Oct 3.1 05:51:08 10° N 05:56:04 54° WNW 06:00:59 10° SSW visible
08 Oct 3.2 05:14:05 10° NNE 05:19:10 70° ESE 05:24:12 10° S visible
09 Oct 4.7 04:37:32 10° NNE 04:42:03 32° E 04:46:32 10° SSE visible
09 Oct 3.7 06:16:33 10° N 06:21:00 32° WNW 06:25:27 10° SW visible
10 Oct 5.8 04:02:00 10° ENE 04:04:45 14° E 04:07:28 10° ESE visible
10 Oct 2.9 05:39:11 10° N 05:44:14 69° WNW 05:49:16 10° SSW visible
11 Oct 3.6 05:02:17 10° NNE 05:07:16 55° E 05:12:13 10° S visible
12 Oct 5.1 04:25:57 10° NE 04:30:06 25° E 04:34:13 10° SSE visible
12 Oct 3.4 06:04:29 10° N 06:09:13 40° WNW 06:13:55 10° SW visible
13 Oct 6.0 03:51:22 10° ENE 03:52:43 11° E 03:54:03 10° ESE visible
13 Oct 2.9 05:27:17 10° NNE 05:32:23 87° W 05:37:27 10° SSW visible
14 Oct 4.1 04:50:31 10° NNE 04:55:21 42° E 05:00:08 10° S visible
14 Oct 4.0 06:30:03 10° NNW 06:34:05 25° WNW 06:38:08 10° WSW visible
15 Oct 5.4 04:14:28 10° NE 04:18:07 20° E 04:21:44 10° SE visible
15 Oct 3.1 05:52:29 10° N 05:57:24 51° WNW 06:02:16 10° SW visible
